Location: Miles
(41.4492°N, 81.6087°W)
Time: 07:00:42
(UTC+00:00)

Transit 2A - Visible Passes

Search period start: 19 September 2024 00:00
Search period end: 29 September 2024 00:00
Orbit: 590 x 960 km, 66.7° (Epoch: 18 September)

Date Brightness Start Highest point End Pass type
(mag) Time Alt. Az. Time Alt. Az. Time Alt. Az.
19 Sep 8.7 00:35:52 10° W 00:40:44 24° NW 00:45:48 10° N visible
19 Sep 8.9 05:56:00 10° N 05:58:47 15° NNE 05:58:47 15° NNE visible
19 Sep 8.6 07:37:55 10° NNW 07:39:04 16° NNW 07:39:04 16° NNW visible
19 Sep 8.3 23:59:39 10° WSW 00:05:01 32° NW 00:10:38 10° NNE visible
20 Sep 9.1 05:21:19 10° N 05:23:02 12° NNE 05:23:02 12° NNE visible
20 Sep 8.8 07:02:34 10° NNW 07:03:21 14° NNW 07:03:21 14° NNW visible
21 Sep 9.2 01:12:08 10° NW 01:14:20 12° NNW 01:16:32 10° N visible
21 Sep 9.0 06:27:19 10° NNW 06:27:57 13° NNW 06:27:57 13° NNW visible
22 Sep 9.0 00:34:55 10° WNW 00:38:22 15° NW 00:41:53 10° N visible
22 Sep 9.1 05:52:08 10° N 05:52:45 12° N 05:52:45 12° N visible
22 Sep 8.9 23:58:10 10° W 00:02:30 19° NW 00:06:56 10° N visible
23 Sep 9.1 05:17:02 10° N 05:17:40 12° N 05:17:40 12° N visible
24 Sep 9.2 04:42:05 10° N 04:42:40 11° N 04:42:40 11° N visible
25 Sep 9.1 04:07:28 10° N 04:07:43 10° NNE 04:07:43 10° NNE visible
25 Sep 9.0 23:57:49 10° NW 00:00:13 12° NNW 00:02:37 10° N visible
27 Sep 9.2 04:38:08 10° N 04:38:21 11° N 04:38:21 11° N visible
28 Sep 9.1 04:03:03 10° N 04:03:32 11° N 04:03:32 11° N visible
